TimeCDT,TemperatureF,Dew PointF,Humidity,Sea Level PressureIn,VisibilityMPH,Wind Direction,Wind SpeedMPH,Gust SpeedMPH,PrecipitationIn,Events,Conditions,WindDirDegrees,DateUTC
12:56 AM,64.0,55.9,75,30.03,10.0,North,4.6,-,N/A,,Clear,350,2012-10-15 05:56:00
1:56 AM,61.0,55.9,83,30.04,10.0,NW,4.6,-,N/A,,Clear,320,2012-10-15 06:56:00
2:56 AM,61.0,55.0,81,30.04,10.0,Calm,Calm,-,N/A,,Clear,0,2012-10-15 07:56:00
3:56 AM,59.0,55.0,87,30.04,10.0,WSW,3.5,-,N/A,,Clear,250,2012-10-15 08:56:00
4:56 AM,57.2,55.4,94,30.05,10.0,Calm,Calm,-,N/A,,Clear,0,2012-10-15 09:56:00
5:56 AM,55.9,54.0,93,30.05,10.0,Calm,Calm,-,N/A,,Clear,0,2012-10-15 10:56:00
6:56 AM,55.4,53.6,94,30.06,10.0,Calm,Calm,-,N/A,,Scattered Clouds,0,2012-10-15 11:56:00
7:56 AM,57.0,55.0,93,30.07,10.0,Calm,Calm,-,N/A,,Scattered Clouds,0,2012-10-15 12:56:00
8:56 AM,62.1,57.0,84,30.09,10.0,Calm,Calm,-,N/A,,Scattered Clouds,0,2012-10-15 13:56:00
9:56 AM,71.1,57.0,61,30.09,10.0,Calm,Calm,-,N/A,,Scattered Clouds,0,2012-10-15 14:56:00
10:56 AM,73.9,48.9,41,30.09,10.0,ESE,5.8,-,N/A,,Scattered Clouds,110,2012-10-15 15:56:00
11:56 AM,75.0,48.0,38,30.09,10.0,Calm,Calm,-,N/A,,Scattered Clouds,0,2012-10-15 16:56:00
12:56 PM,78.8,48.2,34,30.08,10.0,Variable,3.5,-,N/A,,Mostly Cloudy,0,2012-10-15 17:56:00
1:56 PM,79.0,48.0,34,30.04,10.0,Calm,Calm,-,N/A,,Mostly Cloudy,0,2012-10-15 18:56:00
2:56 PM,79.0,48.9,35,30.01,10.0,NNE,3.5,-,N/A,,Mostly Cloudy,20,2012-10-15 19:56:00
3:56 PM,78.1,48.9,36,29.99,10.0,NNW,4.6,-,N/A,,Mostly Cloudy,340,2012-10-15 20:56:00
4:56 PM,79.0,46.0,31,29.97,10.0,Calm,Calm,-,N/A,,Scattered Clouds,0,2012-10-15 21:56:00
5:56 PM,77.0,48.2,36,29.98,10.0,Calm,Calm,-,N/A,,Scattered Clouds,0,2012-10-15 22:56:00
6:56 PM,66.9,55.0,66,29.98,10.0,Calm,Calm,-,N/A,,Scattered Clouds,0,2012-10-15 23:56:00
7:56 PM,61.0,55.9,83,30.00,10.0,Calm,Calm,-,N/A,,Clear,0,2012-10-16 00:56:00
8:56 PM,62.1,55.9,80,30.01,10.0,Calm,Calm,-,N/A,,Scattered Clouds,0,2012-10-16 01:56:00
9:56 PM,60.1,55.9,86,30.01,10.0,Calm,Calm,-,N/A,,Scattered Clouds,0,2012-10-16 02:56:00
10:56 PM,57.9,55.0,90,30.01,10.0,Calm,Calm,-,N/A,,Scattered Clouds,0,2012-10-16 03:56:00
11:56 PM,55.9,54.0,93,30.01,10.0,Calm,Calm,-,N/A,,Partly Cloudy,0,2012-10-16 04:56:00